Terminal Aerodrome Forecast
Issued by NWS

Home | Current Version | Previous Version | Graphics & Text | Print | Product List | Glossary On
Versions: 1 2 3 4 5 6 7 8 9 10 11 12 13 14 15 16 17
740
FTUS43 KFGF 301323 AAA
TAFBJI
TAF AMD
KBJI 301323Z 3013/0112 01005KT 5SM -SN OVC005
     FM301600 01007KT 6SM -SN OVC006
     FM302300 35008KT P6SM -SN OVC010
     FM010500 34008KT P6SM -FZDZ OVC008=

USA.gov is the U.S. government's official web portal to all federal, state and local government web resources and services.